Regional Weather Roundup
Issued by NWS

Home | Current Version | Previous Version | Text Only | Print | Product List | Glossary On
Versions: 1 2 3 4 5 6 7 8 9 10 11 12 13 14 15 16 17 18 19 20 21 22 23 24 25 26 27 28 29 30 31 32 33 34 35 36 37 38 39 40 41 42 43 44 45 46 47 48 49 50
000
ASUS46 KSTO 251215
RWRCA

NORTHERN AND CENTRAL CA REGIONAL WEATHER ROUNDUP
NATIONAL WEATHER SERVICE SACRAMENTO CA
500 AM PDT MON JUL 25 2016

NOTE: FAIR INDICATES FEW OR NO CLOUDS BELOW 12,000 FEET WITH NO
SIGNIFICANT WEATHER AND/OR OBSTRUCTIONS TO VISIBILITY.

CAZ001-003-251300-
NORTHWEST AREA

CITY           SKY/WX    TMP DP  RH WIND       PRES   REMARKS
CRESCENT CITY  CLOUDY    56  54  93 S3        30.03S FOG
UKIAH          CLEAR     59  50  72 CALM      29.90S
$$

CAZ006-505>513-251300-
BAY AREA

CITY           SKY/WX    TMP DP  RH WIND       PRES   REMARKS
SANTA ROSA     CLEAR     50  48  93 CALM      29.89F
SAN RAFAEL     N/A       53  MM  MM MISG
NAPA           CLOUDY    56  53  90 S8        29.91S
CONCORD        CLEAR     58  50  75 CALM      29.89R
OAKLAND CITY   N/A       57  MM  MM MISG
OAKLAND        CLOUDY    58  54  86 SW6       29.94R
SAN FRAN CITY  N/A       54  MM  95 MISG
SAN FRAN ARPT  PTCLDY    56  51  84 CALM      29.93S
LIVERMORE      CLEAR     57  51  80 NW6       29.91R
HAYWARD        CLOUDY    59  52  77 NW7       29.93R
REDWOOD CITY   N/A       57  MM  87 MISG
MOFFETT ARPT   CLOUDY    59  55  87 NE6       29.94R
SAN JOSE ARPT  CLEAR     57  53  86 NW3       29.93R
$$
CAZ034-037-514>518-251300-
CENTRAL COAST

CITY           SKY/WX    TMP DP  RH WIND       PRES   REMARKS
WATSONVILLE    CLOUDY    53  52  96 CALM      29.96S FOG
SALINAS        CLOUDY    54  50  86 SW7       29.96S
MONTEREY       CLOUDY    53  52  96 W5        29.97R FOG
SAN LUIS OBISP FOG       53  51  93 CALM      29.94R VSB 3/4
SANTA MARIA    FOG       53  53 100 CALM      29.94S VSB 1/4
$$
CAZ015-016-251300-
NORTHERN SACRAMENTO VALLEY

CITY           SKY/WX    TMP DP  RH WIND       PRES   REMARKS
REDDING        CLEAR     72  54  53 CALM      29.87R
RED BLUFF      CLEAR     77  54  44 SE6       29.87R
OROVILLE       CLEAR     73  53  49 SW3       29.87R
$$
CAZ016>018-251300-
SOUTHERN SACRAMENTO VALLEY

CITY           SKY/WX    TMP DP  RH WIND       PRES   REMARKS
AUBURN         CLEAR     73  41  31 E7        29.93S
BEALE AFB      CLEAR     71  46  41 SE3       29.84R
LINCOLN        FAIR      66  45  45 S6        29.84S
MARYSVILLE     CLEAR     67  32  27 SE6       29.85R
SAC INTL ARPT  CLEAR     65  50  58 S14       29.83S
MATHER AIRPORT CLEAR     61  50  67 CALM      29.86
DOWNTOWN SAC   N/A       64  MM  MM MISG
SAC EXEC ARPT  CLEAR     61  51  70 SW8       29.86R
VACAVILLE      CLEAR     63  49  60 SW6       29.85R
TRAVIS AFB     CLEAR     57  52  82 SW24      29.82S
$$
CAZ019>021-251300-
SAN JOAQUIN VALLEY

CITY           SKY/WX    TMP DP  RH WIND       PRES   REMARKS
STOCKTON       CLEAR     64  55  72 NW8       29.85R
MODESTO        CLEAR     71  52  50 NW7       29.83F
MERCED         CLEAR     67  54  63 NW7       29.83S
LEMOORE        CLEAR     66  48  52 W3        29.86R
FRESNO         CLEAR     74  49  41 CALM      29.85S
HANFORD        CLEAR     66  55  67 S5        29.86R
PORTERVILLE    CLEAR     68  44  42 SE7       29.88R
BAKERSFIELD    CLEAR     79  36  21 CALM      29.87R
$$
CAZ011-012-071-251300-
NORTHERN MOUNTAINS

CITY           SKY/WX    TMP DP  RH WIND       PRES   REMARKS
YREKA          CLEAR     61  44  53 NE3       30.04R
MOUNT SHASTA   CLEAR     55  46  71 CALM      30.08R
ALTURAS        CLEAR     52  35  52 CALM      30.13R
$$
CAZ011-012-071-251300-
SIERRA NEVADA MTNS

CITY           SKY/WX    TMP DP  RH WIND       PRES   REMARKS
TRUCKEE        CLEAR     36  32  87 CALM      30.26S
TAHOE VLY ARPT CLEAR     40  32  73 CALM      30.26R
MAMMOTH LAKES    N/A     44  23  43 CALM      30.31S
$$




USA.gov is the U.S. government's official web portal to all federal, state and local government web resources and services.